User: anonymous   Login
Location: Lecco
(45.8566°N, 9.3977°E)
Time: 20:15:27
(UTC+02:00)
Language:

Transit 2A - Orbit

View from above orbital plane
View from above orbital plane
View from above satellite
View from above satellite

Ground track
Ground track

The orbit data is extracted from the following two-line orbital elements,

1    45U 60007A   19236.98423840 -.00000078  00000-0  75352-5 0  9994
2    45  66.6937  84.7737 0255023 173.8463 186.5877 14.33646565 80062
Epoch (UTC): 24 August 2019 23:37:18
Eccentricity: 0.0255023
inclination: 66.6937°
perigee height: 597 km
apogee height: 962 km
right ascension of ascending node: 84.7737°
argument of perigee: 173.8463°
revolutions per day: 14.33646565
mean anomaly at epoch: 186.5877°
orbit number at epoch: 8006

The dashed part of the orbit path shows where the satellite is in the earth's shadow,  

DLR